JZA260 CYXU-CYYZ

Flight info

Callsign JZA260
Flight time N/A
Altitude 13000
Route NUBER NUBER6
Aircraft CRJ9/M-SDFGIRWY/S

Departure

Time 2026-04-24 19:48
Airport London International Airport (CYXU)

Arrival

Time N/A
Airport Toronto Pearson International Airport (CYYZ)
Time Latitude Longitude Altitude Speed Heading
2026-04-24 19:18 43.02834 -81.14770 916 ft 0 kts 253°
2026-04-24 19:33 43.02834 -81.14771 916 ft 0 kts 253°
2026-04-24 19:34 43.02834 -81.14769 916 ft 1 kts 253°
2026-04-24 19:34 43.02838 -81.14750 916 ft 2 kts 253°
2026-04-24 19:34 43.02843 -81.14731 916 ft 2 kts 253°
2026-04-24 19:35 43.02847 -81.14711 916 ft 2 kts 253°
2026-04-24 19:35 43.02850 -81.14691 916 ft 2 kts 270°
2026-04-24 19:35 43.02847 -81.14671 916 ft 2 kts 290°
2026-04-24 19:35 43.02840 -81.14654 916 ft 2 kts 309°
2026-04-24 19:36 43.02833 -81.14645 916 ft 0 kts 319°
2026-04-24 19:38 43.02855 -81.14671 916 ft 7 kts 318°
2026-04-24 19:38 43.02914 -81.14744 916 ft 14 kts 318°
2026-04-24 19:38 43.03007 -81.14854 916 ft 19 kts 319°
2026-04-24 19:39 43.03109 -81.14976 916 ft 19 kts 319°
2026-04-24 19:39 43.03208 -81.15094 916 ft 18 kts 318°
2026-04-24 19:39 43.03305 -81.15211 916 ft 18 kts 319°
2026-04-24 19:39 43.03400 -81.15325 916 ft 18 kts 319°
2026-04-24 19:40 43.03494 -81.15436 916 ft 17 kts 319°
2026-04-24 19:40 43.03584 -81.15546 916 ft 17 kts 317°
2026-04-24 19:40 43.03673 -81.15655 916 ft 17 kts 318°
2026-04-24 19:40 43.03761 -81.15761 916 ft 16 kts 319°
2026-04-24 19:41 43.03848 -81.15865 916 ft 16 kts 319°
2026-04-24 19:41 43.03933 -81.15964 916 ft 14 kts 319°
2026-04-24 19:41 43.04006 -81.16007 916 ft 10 kts 358°
2026-04-24 19:41 43.04028 -81.16009 916 ft 0 kts 360°
2026-04-24 19:42 43.04032 -81.16009 916 ft 0 kts 360°
2026-04-24 19:42 43.04037 -81.16009 916 ft 0 kts 360°
2026-04-24 19:42 43.04045 -81.16009 916 ft 1 kts
2026-04-24 19:42 43.04048 -81.16009 916 ft 0 kts
2026-04-24 19:46 43.04063 -81.16007 916 ft 5 kts
2026-04-24 19:46 43.04117 -81.15971 916 ft 10 kts 41°
2026-04-24 19:47 43.04133 -81.15887 916 ft 4 kts 133°
2026-04-24 19:47 43.04057 -81.15793 916 ft 49 kts 139°
2026-04-24 19:47 43.03597 -81.15242 917 ft 124 kts 139°
2026-04-24 19:47 43.02855 -81.14340 1363 ft 144 kts 135°
2026-04-24 19:48 43.02099 -81.13421 1931 ft 159 kts 138°
2026-04-24 19:48 43.01248 -81.12439 2702 ft 164 kts 141°
2026-04-24 19:48 42.99477 -81.10055 3149 ft 203 kts 108°
2026-04-24 19:49 43.00146 -81.06276 4090 ft 217 kts 62°
2026-04-24 19:49 43.01953 -81.02904 5029 ft 226 kts 50°
2026-04-24 19:50 43.05148 -80.98046 6473 ft 234 kts 45°
2026-04-24 19:50 43.06243 -80.96429 6958 ft 235 kts 45°
2026-04-24 19:51 43.08496 -80.93114 7908 ft 238 kts 44°
2026-04-24 19:51 43.09611 -80.91477 8382 ft 239 kts 44°
2026-04-24 19:52 43.11864 -80.88159 9331 ft 239 kts 43°
2026-04-24 19:52 43.12999 -80.86487 9750 ft 242 kts 43°
2026-04-24 19:52 43.14150 -80.84790 10214 ft 242 kts 42°
2026-04-24 19:52 43.15288 -80.83111 10630 ft 244 kts 43°
2026-04-24 19:53 43.16442 -80.81415 11088 ft 244 kts 43°
2026-04-24 19:53 43.17591 -80.79714 11506 ft 245 kts 43°
2026-04-24 19:53 43.19917 -80.76277 12332 ft 247 kts 43°
2026-04-24 19:54 43.21075 -80.74560 12730 ft 248 kts 42°
2026-04-24 19:54 43.22271 -80.72792 12998 ft 257 kts 43°
2026-04-24 19:54 43.23533 -80.70931 13011 ft 275 kts 43°
2026-04-24 19:54 43.24856 -80.68969 13037 ft 292 kts 43°
2026-04-24 19:55 43.25813 -80.67550 13031 ft 304 kts 43°
2026-04-24 19:55 43.27798 -80.64603 13029 ft 327 kts 43°
2026-04-24 19:55 43.29365 -80.62268 13036 ft 342 kts 44°
2026-04-24 19:55 43.31013 -80.59824 13028 ft 357 kts 44°
2026-04-24 19:56 43.32719 -80.57287 13040 ft 370 kts 44°
2026-04-24 19:56 43.34507 -80.54621 13027 ft 384 kts 44°
2026-04-24 19:56 43.36338 -80.51893 13035 ft 395 kts 44°
2026-04-24 19:56 43.38218 -80.49086 13029 ft 405 kts 44°
2026-04-24 19:57 43.40155 -80.46193 13086 ft 409 kts 44°
2026-04-24 19:57 43.42017 -80.43395 13022 ft 386 kts 44°
2026-04-24 19:57 43.43789 -80.40741 12977 ft 368 kts 44°
2026-04-24 19:57 43.45440 -80.38036 12954 ft 374 kts 54°
2026-04-24 19:58 43.46352 -80.34680 12994 ft 377 kts 74°
2026-04-24 19:58 43.46977 -80.31144 12865 ft 382 kts 74°
2026-04-24 19:58 43.47609 -80.27552 12408 ft 395 kts 74°
2026-04-24 19:58 43.48258 -80.23859 12015 ft 395 kts 74°
2026-04-24 19:59 43.48900 -80.20196 11591 ft 395 kts 74°
2026-04-24 19:59 43.49289 -80.16434 11074 ft 400 kts 90°
2026-04-24 19:59 43.48896 -80.12673 10655 ft 399 kts 98°
2026-04-24 19:59 43.48450 -80.08914 10240 ft 399 kts 98°
2026-04-24 20:00 43.48006 -80.05176 9795 ft 398 kts 98°
2026-04-24 20:00 43.47560 -80.01393 9338 ft 398 kts 98°
2026-04-24 20:00 43.47118 -79.97653 8897 ft 397 kts 98°
2026-04-24 20:00 43.46755 -79.93935 8445 ft 395 kts 91°
2026-04-24 20:01 43.47268 -79.90288 7904 ft 391 kts 66°
2026-04-24 20:01 43.48755 -79.87218 7467 ft 384 kts 44°
2026-04-24 20:01 43.50624 -79.84631 7075 ft 381 kts 44°
2026-04-24 20:01 43.52480 -79.82023 6628 ft 380 kts 44°
2026-04-24 20:02 43.53693 -79.80298 6388 ft 378 kts 43°
2026-04-24 20:02 43.56102 -79.76869 5820 ft 367 kts 45°
2026-04-24 20:02 43.57836 -79.74368 4617 ft 346 kts 46°
2026-04-24 20:02 43.59326 -79.72214 3507 ft 282 kts 48°
2026-04-24 20:03 43.60333 -79.70753 4814 ft 159 kts 46°